STARLINK-32598, 62046

Orbit data source: Space-Track

STARLINK-32598, 62046 is a payload satellite owned by SpaceX/Seattle (US) in LEO that was launched on Thu, 21 Nov 2024 UTC via an FALCON 9 launch vehicle from the Air Force Eastern Test Range (AFETR). Payload-class satellites include a variety of spacecraft equipped with specific instruments for various scientific and technological missions. These include communications satellites like Starlink; space stations such as the ISS; scientific satellites like the Hubble; Earth observation satellites from companies like Planet Labs, Umbra, and HawkEye 360; GPS; miniature CubeSats for education and research; and military/defense satellites.

Loading next visibility...
Identifier
62046, 2024-216Q
Orbit
LEO
Country
Flag of USUS
Related business
Manufacturer
SpaceX/Seattle
Mission
Operational Commercial Communications
Bus & Motor
STARLINK V2M, Unknown motor
Mass
730 kg wet, ~700 kg dry
Launch date (UTC)
2024-11-21 (2 years ago)
Launch vehicle
FALCON 9
Launch site
Air Force Eastern Test Range (AFETR)
Object type
Payload
Rocket body
Debris
Shape & HBR
Box + 2 Pan, 17.7 m
Radar Cross Section
33.884 m², Large (>1 m²)

Expand to show TLE details & history
Last TLE update: 23 hours ago

TLE from 23 hours ago
0 STARLINK-32598
1 62046U 24216Q   26171.03558960  .00015297  00000-0  56399-3 0  9995
2 62046  43.0016  37.8495 0001502 268.1977  91.8703 15.27594880 89530
Epoch: 2026-06-20T00:51Z
TLE epoch observation values (Epoch: 2026-06-20T00:51:14.941Z)
Latitude
0.00001°
Longitude
116.78126°
Altitude
482.814 km
Speed
7.626 km/s
True Right ascension
02h 31m 23s
True Declination
0° 00' 00"
Sunlit
Object was in daylight at epoch
Visualization orbit readout
Latitude
Unknown
Longitude
Unknown
Altitude
Unknown
Speed
Unknown
Apparent Right ascension
Unknown
Apparent Declination
Unknown
Sunlit
N/A
Visualization observer readout
Local Sidereal Time
10:17:57
Azimuth
Unknown
Elevation
Unknown
Doppler factor
Unknown
Orbital elements
Apogee altitude
485.98 km
Perigee altitude
483.919 km
Semi-major axis
6,863.086 km
Eccentricity
0.00015
Inclination
43.0016°
RAAN
37.8495°
Arg. of periapsis
268.1977°
True anomaly
91.8875°
Mean anomaly
91.8703°
Eccentric anomaly
91.8789°
Mean motion
3.81737 °/min
Orbital period
94.31 mins
BSTAR
0.00056399
Loading maneuver chart data...
Computing Atmospheric mass density...
Loading historical data...
Loading historical data...
Loading historical data...
Loading historical data...
Loading historical data...
Loading historical data...
Loading historical data...

Documentation

Showing up to 5 results
|